Location: Bidart
(43.4376°N, 1.5913°W)
Time: 11:23:56
(UTC+00:00)

USA 229 DEB - Pass Details

Date: 22 April 2026
Orbit: 844 x 1364 km, 63.4° (Epoch: 10 January)

Event Time Altitude Azimuth Distance (km) Brightness Sun altitude
Rises 23:08:41 0° 324° (NW) 3,954 7.6 -32.7°
Reaches altitude 10° 23:11:24 10° 331° (NNW) 3,067 6.9 -32.8°
Maximum altitude 23:18:35 48° 44° (NE) 1,598 4.6 -33.1°
Enters shadow 23:20:33 41° 81° (E) 1,782 4.7 -33.2°
